TimeEDT,TemperatureF,Dew PointF,Humidity,Sea Level PressureIn,VisibilityMPH,Wind Direction,Wind SpeedMPH,Gust SpeedMPH,PrecipitationIn,Events,Conditions,WindDirDegrees,DateUTC
12:53 AM,35.1,33.1,92,29.76,0.2,East,11.5,-,N/A,Fog,Fog,90,2014-04-30 04:53:00
1:53 AM,35.1,34.0,96,29.75,0.2,East,8.1,-,N/A,Fog,Fog,90,2014-04-30 05:53:00
2:41 AM,35.6,33.8,93,29.72,0.2,East,9.2,-,0.01,Fog-Rain,Light Rain,90,2014-04-30 06:41:00
2:53 AM,36.0,34.0,93,29.75,0.2,East,10.4,-,0.01,Fog,Fog,80,2014-04-30 06:53:00
3:12 AM,35.6,33.8,93,29.71,0.2,East,11.5,-,N/A,Fog,Fog,80,2014-04-30 07:12:00
3:53 AM,36.0,34.0,93,29.75,0.2,East,11.5,-,N/A,Fog,Fog,80,2014-04-30 07:53:00
4:31 AM,35.6,35.6,100,29.72,0.2,East,11.5,-,N/A,Fog,Fog,80,2014-04-30 08:31:00
4:53 AM,36.0,34.0,93,29.75,0.5,East,10.4,-,0.00,Fog-Rain,Light Rain,80,2014-04-30 08:53:00
5:08 AM,35.6,33.8,93,29.71,1.5,East,8.1,18.4,0.01,Rain,Light Rain,80,2014-04-30 09:08:00
5:36 AM,35.6,35.6,100,29.71,0.5,East,9.2,-,0.02,Fog,Fog,80,2014-04-30 09:36:00
5:48 AM,35.6,35.6,100,29.71,0.2,East,10.4,-,0.02,Fog,Fog,80,2014-04-30 09:48:00
5:53 AM,36.0,35.1,97,29.74,0.2,East,10.4,-,0.02,Fog,Fog,80,2014-04-30 09:53:00
6:35 AM,37.4,35.6,93,29.71,0.2,East,10.4,-,N/A,Fog,Fog,90,2014-04-30 10:35:00
6:53 AM,37.0,35.1,93,29.75,0.2,East,12.7,-,N/A,Fog,Fog,100,2014-04-30 10:53:00
7:53 AM,35.1,34.0,96,29.77,0.2,East,11.5,-,N/A,Fog,Fog,90,2014-04-30 11:53:00
8:53 AM,36.0,35.1,97,29.76,0.2,East,10.4,-,N/A,Fog,Fog,80,2014-04-30 12:53:00
9:44 AM,35.6,35.6,100,29.73,0.2,East,10.4,-,N/A,Fog,Fog,80,2014-04-30 13:44:00
9:51 AM,35.6,35.6,100,29.73,0.2,East,9.2,-,0.00,Fog,Fog,80,2014-04-30 13:51:00
9:53 AM,36.0,35.1,97,29.76,0.2,East,9.2,-,0.00,Fog,Fog,80,2014-04-30 13:53:00
10:53 AM,37.4,37.4,100,29.73,0.5,ENE,8.1,-,N/A,Fog-Rain,Light Rain,70,2014-04-30 14:53:00
11:03 AM,37.4,37.4,100,29.73,0.2,East,8.1,-,0.01,Fog-Rain,Light Rain,80,2014-04-30 15:03:00
11:53 AM,39.0,39.0,100,29.76,0.2,East,8.1,-,0.04,Fog-Rain,Light Rain,80,2014-04-30 15:53:00
12:00 PM,39.2,37.4,93,29.72,0.2,East,10.4,-,0.00,Fog-Rain,Light Rain,80,2014-04-30 16:00:00
12:14 PM,39.2,39.2,100,29.72,0.2,East,9.2,-,0.00,Fog,Fog,90,2014-04-30 16:14:00
12:53 PM,39.9,39.9,100,29.75,0.2,East,9.2,-,0.00,Fog,Fog,90,2014-04-30 16:53:00
1:53 PM,42.1,42.1,100,29.75,0.2,ESE,8.1,-,N/A,Fog,Fog,120,2014-04-30 17:53:00
2:05 PM,42.8,42.8,100,29.73,0.2,ESE,9.2,-,N/A,Fog,Fog,110,2014-04-30 18:05:00
2:53 PM,39.9,39.9,100,29.76,0.2,East,6.9,-,N/A,Fog,Fog,80,2014-04-30 18:53:00
3:20 PM,39.2,39.2,100,29.72,0.2,ENE,6.9,-,N/A,Fog,Fog,60,2014-04-30 19:20:00
3:53 PM,41.0,39.0,93,29.75,0.2,East,9.2,-,N/A,Fog,Fog,90,2014-04-30 19:53:00
4:22 PM,39.2,39.2,100,29.73,0.2,ESE,6.9,-,0.00,Fog,Fog,120,2014-04-30 20:22:00
4:53 PM,39.0,37.9,96,29.75,0.2,ENE,4.6,-,0.00,Fog,Fog,60,2014-04-30 20:53:00
5:09 PM,39.2,39.2,100,29.72,0.2,ENE,4.6,-,N/A,Fog,Fog,60,2014-04-30 21:09:00
5:50 PM,39.2,37.4,93,29.71,0.2,East,5.8,-,N/A,Fog,Fog,100,2014-04-30 21:50:00
5:53 PM,39.0,37.9,96,29.74,0.2,ESE,4.6,-,N/A,Fog,Fog,110,2014-04-30 21:53:00
6:53 PM,39.0,37.0,93,29.74,0.2,SE,4.6,-,N/A,Fog,Fog,130,2014-04-30 22:53:00
7:53 PM,37.9,37.0,97,29.75,0.2,Calm,Calm,-,N/A,Fog,Fog,0,2014-04-30 23:53:00
8:53 PM,37.9,37.0,97,29.73,0.2,ESE,3.5,-,N/A,Fog,Fog,120,2014-05-01 00:53:00
9:53 PM,37.0,35.1,93,29.75,0.2,ESE,3.5,-,N/A,Fog,Fog,120,2014-05-01 01:53:00
10:41 PM,35.6,33.8,93,29.71,0.2,NNE,3.5,-,N/A,Fog,Fog,30,2014-05-01 02:41:00
10:53 PM,37.0,35.1,93,29.75,0.2,Calm,Calm,-,N/A,Fog,Fog,0,2014-05-01 02:53:00
11:53 PM,37.0,35.1,93,29.73,0.5,ENE,4.6,-,N/A,Fog,Fog,60,2014-05-01 03:53:00